[[{"header":{"parameterUnit":"m.s-1","parameterCategory":1,"la1":30.2991,"la2":30.254,"lo1":-89.0895,"lo2":-89.0444,"dy":0.0017,"dx":0.0017,"nx":28,"ny":28,"refTime":"2023-11-16T03:00:00:Z","depth":0,"parameterNumber":2,"parameterNumberName":"U-component_of_WINDS"},"data":[0,0,0,0,0,0,0,0,0,0,0,0,0,0,0,0,0,0,0,0,0,0,0,0,0,0,0,0,0,0,0,0,0,0,0,0,0,0,0,0,0,0,0,0,0,0,0,0,0,0,0,0,0,0,0,0,0,0,-4.2595,-4.2599,0,-4.2925,-4.2929,-4.2932,-4.2994,-4.2991,-4.2989,-4.2986,-4.3322,-4.3333,-4.3344,0,0,0,0,0,0,0,0,0,0,0,0,0,-4.2018,-4.2028,-4.2595,-4.2599,-4.2603,-4.2924,-4.2929,-4.2933,-4.2994,-4.2991,-4.2988,-4.2985,-4.3318,-4.3332,-4.3345,0,0,0,0,0,0,0,0,0,0,0,0,0,-4.23,-4.2031,-4.2594,-4.2673,-4.2683,-4.2923,-4.2929,-4.2934,-4.2995,-4.2991,-4.2987,-4.2983,-4.3314,-4.333,-4.3347,-4.3533,0,0,-4.34,-4.3407,0,0,0,0,0,0,0,0,-4.2284,-4.2321,-4.2657,-4.2668,-4.268,-4.2914,-4.2848,-4.3135,-4.2996,-4.2876,-4.2986,-4.2981,-4.3189,-4.3217,-4.3287,-4.3548,-4.3563,-4.3401,-4.3412,-4.3419,-4.3424,0,0,0,0,0,0,0,-4.2264,-4.2307,-4.2725,-4.2662,-4.2676,-4.2691,-4.2727,-4.2903,-4.3051,-4.2887,-4.2892,-4.293,-4.3195,-4.327,-4.3295,-4.3568,-4.3401,-4.3416,-4.3426,-4.3433,-4.4,-4.4004,0,0,0,0,0,0,-4.2231,-4.2291,-4.2715,-4.2735,-4.2468,-4.2704,-4.2744,-4.2843,-4.3049,-4.3077,-4.2933,-4.2932,-4.3243,-4.3275,-4.3307,-4.354,-4.3419,-4.3435,-4.3445,-4.3995,-4.4001,-4.4006,0,0,0,0,0,0,-4.2218,-4.2268,-4.2702,-4.2515,-4.2571,-4.2719,-4.2829,-4.2851,-4.2927,-4.3085,-4.3111,-4.2983,-4.3241,-4.3283,-4.3477,-4.3552,-4.3443,-4.3458,-4.3989,-4.3997,-4.4003,-4.4005,0,0,0,0,0,0,-4.2201,-4.2263,-4.2335,-4.2516,-4.2581,-4.2866,-4.2833,-4.2861,-4.2957,-4.2958,-4.3139,-4.3165,-4.3241,-4.3451,-4.3494,-4.3574,-4.3472,-4.3983,-4.3993,-4.4001,-4.3999,-4.4011,-4.4022,0,0,0,0,0,-4.2181,-4.2322,-4.2339,-4.239,-4.2674,-4.287,-4.2907,-4.2993,-4.2962,-4.3036,-4.3138,-4.3159,-4.3537,-4.347,-4.3519,-4.3605,-4.3979,-4.399,-4.4,-4.3994,-4.4009,-4.4022,0,0,0,0,0,0,-4.2146,-4.2347,-4.2368,-4.2572,-4.2703,-4.288,-4.2976,-4.3006,-4.3148,-4.3144,-4.3243,-4.3283,-4.3472,-4.3558,-4.348,-4.3797,-4.3756,-4.3777,-4.3734,-4.375,-4.3761,-4.3737,-4.3486,0,0,0,0,0,-4.2162,-4.2305,-4.2472,-4.2636,-4.2701,-4.2827,-4.2915,-4.297,-4.311,-4.3166,-4.3282,-4.3416,-4.3566,-4.3662,-4.3808,-4.4011,-4.4052,-4.4094,-4.4106,-4.4114,-4.4132,-4.4248,-4.4269,-4.4041,-4.4041,-4.4041,0,0,-4.2196,-4.2324,-4.2408,-4.2632,-4.2741,-4.2887,-4.2873,-4.3028,-4.3137,-4.319,-4.338,-4.3469,-4.3626,-4.3826,-4.3919,-4.3903,-4.4204,-4.4128,-4.4134,-4.4147,-4.4261,-4.4282,-4.4301,-4.4048,-4.4047,-4.4046,0,0,-4.2335,-4.2445,-4.2595,-4.2704,-4.2869,-4.2951,-4.2987,-4.316,-4.3222,-4.3414,-4.3457,-4.3588,-4.3843,-4.3954,-4.4043,-4.4224,-4.425,-4.4269,-4.433,-4.4441,-4.4459,-4.4476,-4.4542,-4.4565,-4.4285,-4.4285,-4.4285,0,-4.2357,-4.2579,-4.2667,-4.2821,-4.2919,-4.2974,-4.3126,-4.3228,-4.3431,-4.3497,-4.3476,-4.3798,-4.3908,-4.4135,-4.4179,-4.4249,-4.4294,-4.4249,-4.4449,-4.4467,-4.4484,-4.4548,-4.4573,-4.4287,-4.4286,-4.4286,-4.4286,0,-4.2599,-4.2752,-4.2853,-4.305,-4.3159,-4.3311,-4.3422,-4.3522,-4.3567,-4.3652,-4.3848,-4.3981,-4.4156,-4.4214,-4.4258,-4.4448,-4.4433,-4.4429,-4.4391,-4.4505,-4.4568,-4.4593,-4.4289,-4.4288,-4.4288,-4.4287,0,0,-4.2726,-4.297,-4.3006,-4.3096,-4.3282,-4.3402,-4.3557,-4.3729,-4.3813,-4.3951,-4.4084,-4.4299,-4.4297,-4.4399,-4.4456,-4.4554,-4.4691,-4.4539,-4.4544,-4.4564,-4.491,-4.4914,-4.4941,-4.4709,-4.4714,-4.4718,-4.4898,0,-4.2888,-4.3167,-4.3251,-4.3485,-4.3628,-4.3682,-4.3817,-4.3946,-4.4029,-4.4163,-4.4255,-4.4406,-4.4391,-4.4453,-4.4552,-4.4653,-4.4762,-4.4641,-4.4835,-4.484,-4.4796,-4.4973,-4.4977,-4.5141,-4.4923,-4.4927,-4.493,0,-4.3114,-4.3258,-4.3507,-4.3676,-4.374,-4.3859,-4.4025,-4.4151,-4.4298,-4.4352,-4.4466,-4.4516,-4.468,-4.463,-4.4858,-4.4774,-4.4858,-4.4919,-4.4928,-4.4951,-4.4893,-4.5003,-4.5195,-4.522,-4.4969,-4.4966,-4.4963,0,-4.3184,-4.344,-4.3622,-4.3698,-4.3899,-4.3983,-4.407,-4.4213,-4.4312,-4.4455,-4.4521,-4.4681,-4.4769,-4.4892,-4.4984,-4.4939,-4.5205,-4.5162,-4.5255,-4.5253,-4.531,-4.5306,-4.552,-4.536,-4.536,-4.5359,-4.5359,0,-4.3358,-4.3508,-4.3657,-4.3769,-4.3939,-4.4034,-4.42,-4.429,-4.4418,-4.4549,-4.4604,-4.4725,-4.4839,-4.4976,-4.5048,-4.5227,-4.5266,-4.5315,-4.5333,-4.5311,-4.5305,-4.5369,-4.5361,-4.5366,-4.5364,-4.5363,-4.5362,0,-4.3465,-4.3571,-4.3774,-4.3948,-4.3995,-4.4113,-4.4263,-4.4374,-4.4459,-4.4624,-4.4668,-4.4803,-4.4967,-4.507,-4.5278,-4.5327,-4.5524,-4.5537,-4.5475,-4.5484,-4.5571,-4.5562,-4.5836,-4.5878,-4.5687,-4.5689,-4.569,0,-4.357,-4.3687,-4.3875,-4.3967,-4.4056,-4.4203,-4.4304,-4.4402,-4.4505,-4.4682,-4.4772,-4.494,-4.508,-4.5339,-4.5455,-4.5615,-4.5634,-4.5719,-4.5658,-4.5633,-4.5638,-4.5631,-4.5644,-4.5729,-4.573,-4.5732,-4.5733,0,-4.3746,-4.3792,-4.3936,-4.4099,-4.4218,-4.4351,-4.4483,-4.4555,-4.4676,-4.4789,-4.4958,-4.5066,-4.5279,-4.5446,-4.5616,-4.5706,-4.5741,-4.5751,-4.5781,-4.5761,-4.5721,-4.5747,-4.5504,-4.5744,-4.5743,-4.5742,-4.5742,-4.5741,-4.3857,-4.3964,-4.4114,-4.4273,-4.4383,-4.4505,-4.4619,-4.4719,-4.4862,-4.5044,-4.5093,-4.527,-4.5415,-4.5648,-4.5741,-4.5881,-4.587,-4.5913,-4.5925,-4.5934,-4.5937,-4.5697,-4.5912,-4.5912,-4.5912,-4.5912,-4.5912,0,-4.4037,-4.4136,-4.4281,-4.4466,-4.4591,-4.4612,-4.476,-4.4863,-4.5018,-4.5151,-4.5288,-4.5483,-4.5644,-4.5773,-4.594,-4.6027,-4.6047,-4.6068,-4.6063,-4.6084,-4.5936,-4.5895,-4.6049,-4.6049,-4.6049,-4.6049,-4.6049,-4.6049,-4.4146,-4.433,-4.4394,-4.4633,-4.4731,-4.4906,-4.4989,-4.5102,-4.5209,-4.5424,-4.556,-4.5643,-4.5775,-4.5951,-4.6101,-4.6135,-4.6194,-4.6212,-4.6249,-4.6109,-4.6094,-4.608,-4.6041,-4.6224,-4.6224,-4.6386,-4.6387,-4.6388]},{"header":{"parameterUnit":"m.s-1","parameterCategory":1,"la1":30.2991,"la2":30.254,"lo1":-89.0895,"lo2":-89.0444,"dy":0.0017,"dx":0.0017,"nx":28,"ny":28,"refTime":"2023-11-16T03:00:00:Z","depth":0,"parameterNumber":3,"parameterNumberName":"V-component_of_WINDS"},"data":[0,0,0,0,0,0,0,0,0,0,0,0,0,0,0,0,0,0,0,0,0,0,0,0,0,0,0,0,0,0,0,0,0,0,0,0,0,0,0,0,0,0,0,0,0,0,0,0,0,0,0,0,0,0,0,0,0,0,-7.1358,-7.1359,0,-7.138,-7.138,-7.138,-7.1256,-7.1253,-7.1249,-7.1246,-7.1265,-7.1268,-7.1272,0,0,0,0,0,0,0,0,0,0,0,0,0,-7.1207,-7.121,-7.1358,-7.1359,-7.1359,-7.138,-7.138,-7.138,-7.1257,-7.1252,-7.1248,-7.1244,-7.1263,-7.1268,-7.1272,0,0,0,0,0,0,0,0,0,0,0,0,0,-7.1255,-7.1211,-7.1358,-7.13,-7.1295,-7.138,-7.138,-7.138,-7.1258,-7.1252,-7.1247,-7.1242,-7.1262,-7.1267,-7.1273,-7.1414,0,0,-7.129,-7.1293,0,0,0,0,0,0,0,0,-7.1252,-7.1261,-7.1308,-7.1304,-7.1298,-7.131,-7.1333,-7.1392,-7.1259,-7.1272,-7.1246,-7.124,-7.1284,-7.1287,-7.1303,-7.1415,-7.1416,-7.1291,-7.1294,-7.1297,-7.1298,0,0,0,0,0,0,0,-7.1249,-7.1259,-7.1367,-7.1309,-7.1303,-7.1271,-7.1272,-7.1344,-7.1307,-7.127,-7.1261,-7.1266,-7.128,-7.1298,-7.1302,-7.1416,-7.1291,-7.1296,-7.1299,-7.1302,-7.1645,-7.1651,0,0,0,0,0,0,-7.1254,-7.1257,-7.1366,-7.1367,-7.1262,-7.1278,-7.1279,-7.1312,-7.1306,-7.13,-7.127,-7.126,-7.1291,-7.1296,-7.1303,-7.1468,-7.1297,-7.1302,-7.1305,-7.1639,-7.1646,-7.1653,0,0,0,0,0,0,-7.1251,-7.1265,-7.1365,-7.131,-7.132,-7.1287,-7.1324,-7.1315,-7.1332,-7.1306,-7.1298,-7.1295,-7.1287,-7.1295,-7.1388,-7.1467,-7.1305,-7.131,-7.1633,-7.1642,-7.1649,-7.18,0,0,0,0,0,0,-7.1248,-7.1265,-7.1319,-7.1312,-7.1324,-7.1451,-7.1328,-7.1319,-7.1343,-7.1329,-7.1327,-7.1322,-7.1283,-7.138,-7.1393,-7.1472,-7.1314,-7.1625,-7.1637,-7.1647,-7.1787,-7.1812,-7.1834,0,0,0,0,0,-7.1243,-7.1359,-7.1322,-7.1336,-7.1391,-7.1456,-7.1462,-7.1416,-7.135,-7.1403,-7.1386,-7.1322,-7.1456,-7.139,-7.1404,-7.1486,-7.162,-7.1634,-7.1646,-7.1777,-7.1807,-7.1833,0,0,0,0,0,0,-7.1375,-7.1357,-7.1316,-7.1434,-7.1448,-7.1435,-7.1501,-7.145,-7.1481,-7.1467,-7.1407,-7.1408,-7.1511,-7.1507,-7.1435,-7.1622,-7.1526,-7.1543,-7.1621,-7.165,-7.1672,-7.1671,-7.1319,0,0,0,0,0,-7.1418,-7.1474,-7.1455,-7.1561,-7.157,-7.1535,-7.1562,-7.1525,-7.1536,-7.1541,-7.153,-7.1543,-7.1587,-7.1618,-7.1658,-7.1786,-7.1784,-7.1849,-7.1872,-7.1891,-7.1906,-7.1974,-7.2003,-7.1695,-7.1695,-7.1694,0,0,-7.1508,-7.1505,-7.1544,-7.1588,-7.1594,-7.1652,-7.154,-7.1606,-7.1649,-7.155,-7.1638,-7.1631,-7.1641,-7.1753,-7.1801,-7.1752,-7.199,-7.1907,-7.1923,-7.1927,-7.199,-7.2019,-7.2045,-7.1704,-7.1702,-7.1701,0,0,-7.1701,-7.1704,-7.1794,-7.1802,-7.1814,-7.1789,-7.1811,-7.1806,-7.1798,-7.1886,-7.1813,-7.1862,-7.194,-7.195,-7.1966,-7.2163,-7.2105,-7.2178,-7.2298,-7.2365,-7.239,-7.2411,-7.2482,-7.2508,-7.2192,-7.2193,-7.2193,0,-7.181,-7.1897,-7.1846,-7.1918,-7.1939,-7.1853,-7.1943,-7.1953,-7.1977,-7.1993,-7.1938,-7.2035,-7.2036,-7.2149,-7.2197,-7.2212,-7.2235,-7.2178,-7.239,-7.2411,-7.243,-7.2497,-7.2524,-7.2202,-7.2201,-7.22,-7.2199,0,-7.2031,-7.2092,-7.2162,-7.2189,-7.2218,-7.2298,-7.2259,-7.2294,-7.2255,-7.2236,-7.2326,-7.2324,-7.2362,-7.2386,-7.2347,-7.2494,-7.2463,-7.2401,-7.2303,-7.2469,-7.2531,-7.2557,-7.2214,-7.2211,-7.2208,-7.2206,0,0,-7.2308,-7.2306,-7.2333,-7.2344,-7.235,-7.2396,-7.2472,-7.251,-7.2542,-7.2561,-7.2623,-7.2691,-7.2634,-7.2651,-7.2613,-7.2672,-7.283,-7.2602,-7.2601,-7.2645,-7.2991,-7.304,-7.307,-7.2791,-7.2796,-7.28,-7.2991,0,-7.2498,-7.2629,-7.2586,-7.2719,-7.2775,-7.2694,-7.276,-7.2771,-7.2756,-7.2799,-7.2781,-7.2832,-7.2751,-7.2761,-7.2816,-7.2799,-7.2899,-7.2785,-7.2848,-7.2851,-7.285,-7.3103,-7.3154,-7.3334,-7.3015,-7.3019,-7.3022,0,-7.2737,-7.2767,-7.2906,-7.2904,-7.2925,-7.2986,-7.3018,-7.3061,-7.3071,-7.3055,-7.3076,-7.3026,-7.3099,-7.3002,-7.3102,-7.3026,-7.3049,-7.3045,-7.305,-7.3055,-7.2948,-7.3115,-7.3391,-7.3419,-7.3059,-7.3056,-7.3054,0,-7.2927,-7.3002,-7.3095,-7.3107,-7.3106,-7.315,-7.3152,-7.3156,-7.3183,-7.321,-7.3226,-7.3261,-7.3281,-7.3309,-7.3269,-7.3202,-7.3376,-7.3275,-7.3365,-7.3367,-7.3406,-7.3405,-7.3691,-7.342,-7.342,-7.3419,-7.3419,0,-7.3143,-7.3232,-7.318,-7.3238,-7.3334,-7.3283,-7.338,-7.3371,-7.3377,-7.3431,-7.3362,-7.3414,-7.3358,-7.3404,-7.3373,-7.3462,-7.3471,-7.346,-7.3451,-7.3467,-7.3469,-7.3482,-7.3469,-7.3426,-7.3425,-7.3423,-7.3422,0,-7.3372,-7.3341,-7.3438,-7.3429,-7.3429,-7.3501,-7.3493,-7.3545,-7.3525,-7.3594,-7.3607,-7.3575,-7.3626,-7.3589,-7.3639,-7.3619,-7.3736,-7.3708,-7.3733,-7.3726,-7.3819,-7.3811,-7.4125,-7.4163,-7.3867,-7.387,-7.3872,0,-7.3513,-7.358,-7.3579,-7.3611,-7.3617,-7.3669,-7.3696,-7.3647,-7.3678,-7.3695,-7.3745,-7.379,-7.3824,-7.391,-7.389,-7.3929,-7.3902,-7.4009,-7.3907,-7.3922,-7.3905,-7.3902,-7.3909,-7.403,-7.4034,-7.4037,-7.4039,0,-7.3767,-7.3749,-7.3791,-7.3828,-7.3862,-7.3888,-7.3909,-7.3938,-7.3889,-7.3927,-7.3979,-7.4005,-7.4057,-7.4103,-7.4135,-7.4134,-7.408,-7.4071,-7.4094,-7.4112,-7.4124,-7.412,-7.379,-7.4064,-7.4062,-7.406,-7.4059,-7.4058,-7.3957,-7.4013,-7.4021,-7.407,-7.4081,-7.4102,-7.4151,-7.4138,-7.4181,-7.422,-7.4188,-7.4251,-7.4259,-7.4295,-7.4302,-7.435,-7.4306,-7.4339,-7.4348,-7.4357,-7.4371,-7.4116,-7.4355,-7.4354,-7.4354,-7.4353,-7.4352,0,-7.4208,-7.421,-7.4256,-7.4288,-7.4326,-7.4271,-7.4291,-7.4327,-7.4383,-7.4396,-7.4431,-7.4491,-7.4536,-7.452,-7.4559,-7.4601,-7.4576,-7.4613,-7.461,-7.4611,-7.4407,-7.4384,-7.4632,-7.4632,-7.4632,-7.4632,-7.4632,-7.4631,-7.4344,-7.4436,-7.4418,-7.4514,-7.4514,-7.4577,-7.4593,-7.4612,-7.4622,-7.4693,-7.473,-7.4719,-7.4721,-7.476,-7.4798,-7.4792,-7.481,-7.4856,-7.4842,-7.4652,-7.4625,-7.4599,-7.4576,-7.486,-7.4861,-7.5041,-7.5042,-7.5044]}]]